Temp
63 63 64 65 66 66 65 65 65 65 65 65 64 64 65 65 66 65 65 65 64 65 64 63 63 63 63 64 64 64 64 63 62 61 61 61 60 61 63 61 60 62 62 60 60 59 56 55 57 61 62 62 62 63 63 63 63 63 63 63 64 64 63
64 64 64 65 65 65 65 66 66 67 66 64 64 64 65 66 66 66 65 64 64 64 65 63 63 64 63 63 63 63 63 63 63 63 61 61 61 60 61 61 61 60 61 61 61 60 56 55 56 58 59 61 62 62 62 63 64 64 64 64 65 64 64
63 63 63 63 63 63 63 64 65 65 66 66 66 65 65 66 65 65 64 64 64 64 65 64 64 63 64 63 64 63 64 63 63 62 61 61 62 62 62 61 59 59 59 59 59 59 58 58 55 56 59 59 58 60 62 62 63 64 64 63 64 65 65
61 61 61 61 61 61 61 62 63 63 64 64 64 64 64 65 65 66 65 64 64 64 64 64 63 63 63 63 64 64 63 62 62 63 62 62 62 62 62 61 60 60 59 58 59 59 59 57 56 57 59 60 60 60 61 64 64 65 64 63 63 64 65
60 60 59 59 60 59 59 59 61 62 62 62 62 63 64 64 65 64 65 65 64 64 63 64 64 64 64 64 64 63 63 63 63 63 62 62 62 62 62 62 61 62 61 60 60 60 59 58 58 57 58 60 60 61 62 62 64 64 63 63 65 65 66
60 59 58 59 59 59 59 59 60 60 60 60 61 63 64 64 64 64 64 64 64 64 64 63 63 64 64 64 64 63 63 63 63 63 62 62 62 61 61 62 62 62 61 62 61 60 60 60 59 57 59 60 58 59 61 61 61 63 63 63 64 64 65
59 59 58 58 59 59 59 58 59 60 60 60 61 62 63 64 64 65 65 65 65 64 64 63 63 63 64 63 63 63 63 63 63 63 63 63 63 63 63 62 62 62 62 63 62 61 60 59 58 58 58 58 59 58 59 60 62 60 61 63 63 64 65
60 60 59 59 59 59 59 57 57 58 58 59 60 62 63 63 63 63 63 62 62 62 63 63 63 63 63 63 63 63 64 64 63 63 63 63 62 62 63 62 62 62 62 62 62 61 61 61 60 59 59 56 56 57 57 60 60 61 62 63 64 64 64
59 59 59 59 60 60 59 58 56 56 57 58 59 60 61 61 60 60 60 59 60 60 61 62 62 62 62 62 63 63 63 64 63 62 62 62 62 63 62 62 62 62 63 62 62 62 62 62 61 61 60 59 56 54 56 57 58 59 63 61 63 64 64
58 59 58 59 59 59 58 57 57 58 59 58 58 60 60 60 59 59 58 57 57 56 58 60 61 62 62 62 62 62 62 63 62 62 62 62 63 63 62 62 62 62 62 62 62 62 62 61 61 61 61 59 59 56 55 55 56 57 60 63 60 62 64
58 59 59 58 59 58 57 57 56 56 57 58 58 59 59 60 59 58 56 55 55 55 54 55 55 57 59 61 62 62 62 63 62 62 62 62 62 62 61 61 62 62 62 62 61 62 62 62 61 61 61 61 60 58 57 55 56 59 59 62 63 62 63
56 58 59 59 58 57 56 56 56 56 57 58 58 58 58 58 58 56 55 54 54 54 53 52 52 53 54 56 58 60 62 63 62 62 62 62 62 62 61 61 62 62 62 61 62 62 62 62 62 61 61 61 60 60 59 58 55 57 61 59 62 65 63
56 57 58 58 57 56 56 56 56 55 56 57 57 57 57 57 57 54 53 52 52 52 51 51 51 51 51 52 53 54 57 61 62 62 62 62 62 62 61 61 62 62 62 62 62 62 61 62 63 62 61 61 61 61 60 57 56 57 59 61 62 63 65
54 55 56 57 57 56 56 56 56 56 56 55 56 56 55 55 56 54 52 51 50 50 49 49 49 49 49 49 50 52 53 55 59 61 62 62 62 62 61 61 61 62 63 62 61 62 62 62 62 62 62 61 60 60 59 58 57 57 57 60 61 62 64
53 53 53 53 55 56 56 55 55 55 55 55 55 55 54 54 54 54 51 50 49 49 48 48 48 47 47 46 47 49 51 52 54 59 61 61 61 62 61 61 61 61 62 62 62 62 62 62 61 61 61 61 60 59 61 60 59 58 57 56 59 61 61
53 53 53 53 53 54 55 55 54 53 54 54 55 54 54 53 52 53 51 50 48 48 48 47 47 46 45 45 46 47 48 50 52 54 58 60 61 61 61 60 61 61 61 61 61 61 61 61 62 61 61 61 61 60 61 61 59 57 58 57 60 60 60
53 54 54 55 54 54 53 52 52 51 52 53 53 53 54 53 52 52 50 49 48 47 46 46 46 45 45 44 44 45 46 48 50 52 54 58 61 61 60 60 60 60 60 60 60 60 60 61 60 60 60 60 60 61 61 61 61 60 59 59 58 60 60
53 54 54 55 55 55 54 52 51 51 51 50 51 51 51 52 51 51 49 48 47 47 46 46 45 45 44 45 44 44 45 46 48 51 52 54 59 61 61 60 60 60 60 59 60 60 60 60 61 60 60 60 60 61 61 61 61 60 58 58 58 59 60
52 52 52 52 54 55 55 54 52 51 51 50 50 50 49 49 50 50 50 49 48 47 47 46 45 44 44 44 44 44 44 45 47 49 51 53 56 60 61 61 61 61 60 60 60 60 60 60 60 60 60 60 61 61 60 60 60 59 59 59 58 57 58
50 51 51 51 52 52 52 52 52 51 52 52 50 49 48 48 49 49 49 48 47 47 46 46 45 44 43 44 44 44 44 45 46 48 51 53 55 59 61 61 61 61 61 61 60 60 60 60 60 60 60 60 60 60 59 60 60 59 58 58 58 58 58
49 50 50 50 50 51 51 51 51 51 51 50 51 50 48 47 48 49 49 48 47 46 45 45 44 43 43 44 44 44 45 45 46 48 50 53 56 58 60 61 61 61 61 61 61 61 61 60 60 60 60 60 59 59 59 59 59 58 58 57 57 56 56
49 49 49 49 49 49 49 50 50 50 50 50 51 50 49 48 47 47 48 48 47 46 44 43 43 43 42 43 44 45 46 46 47 48 51 53 56 58 59 60 60 61 62 63 58 58 59 59 60 59 60 60 59 59 59 58 58 58 58 58 57 57 56
48 48 49 48 47 48 48 48 49 49 49 49 49 49 48 48 47 46 46 46 45 44 43 43 44 43 43 43 43 45 46 48 49 51 53 53 52 53 54 57 60 62 58 56 55 52 51 53 56 60 60 60 59 59 58 58 58 58 58 57 56 56 55
49 48 48 48 47 47 47 47 47 47 47 47 47 48 47 46 46 45 45 44 44 44 43 44 42 40 41 42 44 44 45 46 49 50 50 49 49 50 50 50 50 53 57 58 57 53 49 48 49 50 52 55 58 60 58 57 58 58 57 57 57 57 57
48 48 48 47 47 47 46 45 46 46 46 46 46 46 46 45 45 45 44 44 43 44 43 43 40 41 40 40 43 44 45 45 47 47 48 47 47 47 48 48 49 50 50 51 54 51 52 50 46 46 46 47 49 50 53 58 58 58 58 57 56 56 57
47 47 47 47 47 47 45 44 44 44 44 45 44 45 44 44 44 44 44 43 43 43 43 42 40 41 40 40 41 43 44 46 46 46 46 46 46 46 46 46 46 46 47 50 50 47 46 49 50 46 46 46 46 46 46 47 51 60 60 58 57 57 57
46 46 46 46 46 46 45 44 42 42 43 43 43 43 43 43 43 43 43 42 42 43 43 42 40 40 40 40 40 42 44 45 45 46 46 45 45 44 45 45 44 43 44 46 46 44 43 44 48 53 53 53 55 53 47 47 47 49 54 60 59 58 60
44 44 44 45 45 45 44 44 43 43 43 42 42 42 42 42 43 43 42 42 42 42 43 42 40 40 40 40 40 42 44 45 45 44 45 45 45 44 44 45 44 42 43 43 45 42 41 42 44 50 55 56 56 57 55 55 55 55 56 59 60 60 60
42 42 43 43 44 44 43 43 42 43 43 42 42 41 42 43 42 41 42 42 42 41 42 41 40 40 39 39 41 42 43 43 44 44 44 44 44 44 44 45 44 42 41 42 42 39 40 40 44 50 55 56 56 56 56 51 45 47 52 58 60 60 59
42 42 42 42 42 42 42 42 42 43 41 41 41 42 41 42 42 42 42 42 41 41 41 42 40 40 39 39 41 41 41 42 42 42 42 43 43 43 43 45 44 41 40 41 40 38 38 39 45 50 54 56 56 55 55 49 43 41 41 39 44 49 49
42 41 40 41 41 41 41 41 42 43 41 40 40 40 41 42 43 42 42 41 43 40 40 42 41 39 39 39 41 40 40 40 40 41 41 42 42 42 43 45 45 42 40 40 39 38 38 40 43 46 50 55 56 55 54 50 50 45 40 41 40 40 41
41 41 41 41 41 40 40 41 40 40 40 40 40 39 42 40 41 42 42 41 45 41 40 42 41 39 39 39 40 39 40 39 39 39 41 41 41 40 41 42 43 41 40 39 38 38 38 40 41 44 46 50 54 55 55 50 49 48 49 50 50 50 48
41 42 41 40 41 41 40 39 39 40 40 40 39 38 38 39 39 40 41 41 41 40 40 40 41 40 39 39 39 40 40 39 37 38 40 40 39 39 39 39 40 39 38 38 38 38 38 38 40 43 45 47 51 55 53 51 50 50 51 50 49 49 48
42 40 40 41 41 41 40 39 39 39 39 39 38 38 38 38 38 39 39 40 40 39 41 41 40 40 39 39 39 39 39 39 38 38 39 39 38 38 37 37 38 39 38 37 38 38 38 38 39 42 41 41 44 47 48 51 49 49 50 49 48 48 47
42 44 41 41 40 40 39 40 39 38 38 37 37 38 37 38 36 38 38 39 40 39 41 43 40 41 39 39 39 39 38 38 38 38 38 38 38 37 37 37 37 38 37 37 38 38 38 38 38 41 39 37 38 37 49 52 51 50 49 48 47 47 47
42 44 42 41 40 39 38 39 38 38 37 37 37 37 37 37 36 37 38 39 39 39 39 41 41 40 40 39 39 38 38 37 37 38 37 37 37 37 38 37 38 39 37 37 37 38 38 38 39 38 38 38 38 40 47 50 49 49 47 47 46 46 45
40 40 40 40 40 39 38 38 38 38 36 36 35 36 36 36 37 37 37 37 38 38 39 38 40 40 40 39 39 38 38 37 37 37 37 36 37 37 37 37 38 37 37 37 37 37 38 38 37 37 38 39 39 41 47 48 47 46 44 44 44 45 45
MSLP
1020.03 1020.11 1019.83 1019.55 1019.23 1019.03 1018.91 1018.87 1018.63 1018.27 1017.63 1017.55 1017.83 1017.75 1017.63 1017.59 1017.55 1017.51 1017.39 1017.39 1017.27 1017.27 1017.39 1017.55 1017.63 1017.47 1017.43 1017.31 1017.27 1017.23 1017.27 1017.31 1017.35 1017.43 1017.19 1017.15 1017.35 1016.95 1016.91 1017.11 1017.15 1016.99 1016.91 1016.99 1016.91 1016.91 1016.99 1017.27 1017.19 1016.95 1016.91 1017.07 1017.23 1017.35 1017.35 1017.35 1017.47 1017.43 1017.39 1017.47 1017.51 1017.63 1017.67
1020.07 1020.03 1019.87 1019.67 1019.55 1019.39 1019.35 1019.11 1018.95 1018.83 1018.63 1018.07 1017.67 1017.67 1017.63 1017.59 1017.63 1017.63 1017.51 1017.63 1017.63 1017.51 1017.51 1017.51 1017.35 1017.19 1017.19 1017.11 1017.07 1017.03 1017.07 1017.03 1017.03 1017.03 1016.99 1016.79 1016.87 1016.87 1017.03 1016.95 1017.03 1016.87 1016.71 1016.59 1016.63 1016.95 1017.11 1017.19 1016.91 1016.95 1016.99 1016.87 1016.99 1017.07 1017.19 1017.23 1017.31 1017.07 1017.03 1017.07 1017.15 1017.23 1017.35
1020.11 1020.03 1019.95 1019.99 1019.87 1019.75 1019.79 1019.59 1019.35 1019.19 1018.95 1018.79 1018.63 1018.47 1018.31 1018.11 1017.99 1017.79 1017.67 1017.59 1017.51 1017.39 1017.31 1017.23 1017.07 1017.03 1016.95 1016.83 1016.75 1016.71 1016.67 1016.75 1016.71 1016.83 1016.71 1016.43 1016.31 1016.23 1016.35 1016.43 1016.75 1016.71 1016.71 1016.51 1016.47 1016.59 1016.75 1016.63 1016.67 1016.63 1016.39 1016.55 1016.83 1016.63 1016.75 1016.87 1016.83 1016.83 1016.79 1016.83 1016.91 1016.99 1017.07
1020.35 1020.23 1020.15 1020.19 1020.11 1020.11 1020.15 1019.91 1019.67 1019.43 1019.27 1019.15 1018.91 1018.67 1018.47 1018.27 1018.07 1017.75 1017.59 1017.47 1017.31 1017.27 1017.19 1017.11 1016.99 1016.87 1016.75 1016.67 1016.51 1016.47 1016.47 1016.51 1016.43 1016.35 1016.27 1016.15 1015.99 1015.95 1015.91 1015.95 1016.07 1016.15 1016.07 1016.11 1015.95 1016.11 1016.15 1016.31 1016.55 1016.35 1016.11 1015.95 1015.95 1016.35 1016.23 1016.19 1016.35 1016.43 1016.51 1016.59 1016.71 1016.75 1016.79
1020.55 1020.51 1020.51 1020.59 1020.55 1020.51 1020.39 1020.15 1019.79 1019.55 1019.43 1019.27 1019.03 1018.79 1018.55 1018.31 1018.07 1017.83 1017.59 1017.35 1017.23 1017.11 1017.07 1016.91 1016.91 1016.79 1016.63 1016.47 1016.35 1016.23 1016.15 1016.03 1015.95 1015.91 1015.83 1015.79 1015.71 1015.59 1015.55 1015.43 1015.39 1015.35 1015.35 1015.35 1015.23 1015.31 1015.47 1015.43 1015.59 1015.87 1016.19 1015.91 1015.95 1015.91 1015.79 1016.03 1016.07 1016.19 1016.31 1016.39 1016.35 1016.47 1016.51
1020.59 1020.67 1020.71 1020.71 1020.63 1020.55 1020.39 1020.19 1019.99 1019.83 1019.63 1019.39 1019.11 1018.95 1018.71 1018.43 1018.19 1017.95 1017.67 1017.43 1017.23 1017.07 1016.91 1016.79 1016.63 1016.47 1016.35 1016.19 1016.07 1015.95 1015.83 1015.83 1015.79 1015.71 1015.55 1015.43 1015.31 1015.31 1015.15 1014.99 1014.87 1014.79 1014.67 1014.55 1014.63 1014.67 1014.75 1014.91 1015.15 1015.63 1015.47 1015.47 1015.87 1015.95 1015.71 1015.91 1016.11 1015.91 1015.99 1016.23 1016.15 1016.15 1016.31
1020.75 1020.75 1020.75 1020.75 1020.67 1020.59 1020.51 1020.43 1020.27 1020.11 1019.95 1019.75 1019.47 1019.23 1018.91 1018.59 1018.31 1018.03 1017.75 1017.51 1017.31 1017.15 1016.95 1016.75 1016.55 1016.31 1016.11 1015.99 1015.83 1015.71 1015.59 1015.47 1015.39 1015.31 1015.15 1014.91 1014.75 1014.63 1014.63 1014.67 1014.43 1014.27 1014.11 1014.07 1014.15 1014.23 1014.43 1014.75 1014.91 1015.03 1015.31 1015.55 1015.55 1015.59 1015.55 1015.71 1015.63 1016.03 1016.07 1015.95 1016.03 1016.15 1016.07
1020.79 1020.79 1020.75 1020.71 1020.63 1020.55 1020.47 1020.43 1020.39 1020.19 1020.07 1019.87 1019.59 1019.31 1018.99 1018.75 1018.55 1018.27 1018.07 1017.91 1017.71 1017.43 1017.11 1016.79 1016.47 1016.19 1015.95 1015.75 1015.55 1015.35 1015.19 1015.11 1015.03 1014.91 1014.75 1014.63 1014.51 1014.35 1014.15 1014.07 1013.99 1013.83 1013.71 1013.71 1013.79 1013.91 1013.95 1014.07 1014.15 1014.47 1014.83 1015.43 1015.59 1015.55 1015.63 1015.51 1015.51 1015.47 1015.35 1015.47 1015.47 1015.71 1015.71
1020.99 1020.95 1020.87 1020.71 1020.63 1020.55 1020.55 1020.55 1020.43 1020.19 1019.99 1019.79 1019.51 1019.23 1019.03 1018.87 1018.71 1018.47 1018.31 1018.23 1017.95 1017.51 1017.07 1016.67 1016.31 1015.99 1015.75 1015.55 1015.31 1015.11 1014.99 1014.87 1014.83 1014.67 1014.47 1014.31 1014.11 1013.87 1013.71 1013.55 1013.51 1013.27 1013.27 1013.31 1013.39 1013.43 1013.47 1013.55 1013.67 1013.95 1014.19 1014.55 1015.07 1015.63 1015.55 1015.63 1015.47 1015.31 1014.91 1015.27 1015.31 1015.19 1015.31
1021.15 1021.07 1020.95 1020.87 1020.75 1020.67 1020.63 1020.59 1020.43 1020.19 1019.91 1019.71 1019.55 1019.23 1019.07 1018.87 1018.75 1018.71 1018.67 1018.39 1017.99 1017.63 1017.19 1016.83 1016.47 1015.99 1015.59 1015.35 1015.15 1014.91 1014.75 1014.59 1014.55 1014.35 1014.03 1013.91 1013.63 1013.35 1013.23 1013.11 1013.07 1012.95 1012.91 1012.99 1013.19 1013.31 1013.35 1013.43 1013.47 1013.63 1013.87 1014.23 1014.55 1014.87 1015.35 1015.35 1015.19 1015.23 1014.87 1014.67 1015.11 1014.91 1014.87
1021.39 1021.23 1021.15 1021.11 1021.03 1020.95 1020.87 1020.71 1020.51 1020.27 1020.11 1019.91 1019.67 1019.39 1019.23 1019.03 1018.99 1019.07 1018.95 1018.63 1018.47 1018.19 1018.03 1017.67 1017.23 1016.67 1016.11 1015.47 1014.99 1014.71 1014.47 1014.27 1014.11 1013.87 1013.67 1013.51 1013.27 1013.03 1012.91 1012.87 1012.71 1012.59 1012.55 1012.71 1012.87 1013.07 1013.27 1013.31 1013.39 1013.43 1013.55 1013.67 1013.99 1014.39 1014.43 1014.83 1014.71 1014.35 1014.47 1014.43 1014.43 1014.63 1014.67
1021.67 1021.51 1021.43 1021.43 1021.35 1021.31 1021.27 1021.11 1020.95 1020.75 1020.43 1020.11 1019.91 1019.71 1019.55 1019.39 1019.23 1019.43 1019.35 1019.19 1018.91 1018.67 1018.47 1018.15 1017.79 1017.43 1016.95 1016.27 1015.55 1014.87 1014.35 1014.07 1013.83 1013.59 1013.27 1013.11 1012.83 1012.63 1012.47 1012.39 1012.35 1012.27 1012.31 1012.31 1012.43 1012.75 1013.03 1013.27 1013.15 1013.15 1013.27 1013.51 1013.83 1013.91 1013.95 1014.07 1014.51 1013.95 1013.87 1014.39 1014.19 1014.03 1014.27
1022.07 1021.91 1021.79 1021.75 1021.75 1021.71 1021.67 1021.55 1021.35 1021.07 1020.95 1020.71 1020.47 1020.27 1020.07 1019.87 1019.71 1019.95 1019.95 1019.75 1019.43 1019.15 1018.91 1018.67 1018.31 1017.91 1017.47 1016.91 1016.39 1015.87 1015.11 1014.23 1013.67 1013.35 1012.99 1012.75 1012.55 1012.39 1012.19 1012.07 1011.99 1012.03 1012.07 1012.15 1012.19 1012.39 1012.67 1012.91 1012.99 1012.91 1012.95 1013.11 1013.31 1013.51 1013.67 1013.91 1014.11 1013.99 1013.75 1013.67 1013.79 1013.83 1013.79
1022.55 1022.39 1022.23 1022.07 1022.03 1022.03 1021.99 1021.91 1021.79 1021.67 1021.31 1021.07 1020.87 1020.63 1020.51 1020.39 1020.23 1020.35 1020.39 1020.15 1019.95 1019.71 1019.47 1019.19 1018.79 1018.43 1017.91 1017.35 1016.83 1016.23 1015.63 1014.99 1014.03 1013.23 1012.87 1012.59 1012.39 1012.19 1012.03 1011.91 1011.75 1011.71 1011.83 1011.95 1011.99 1012.11 1012.19 1012.31 1012.43 1012.47 1012.51 1012.67 1012.95 1013.15 1013.35 1013.67 1014.03 1013.91 1013.71 1013.47 1013.55 1013.63 1013.63
1022.83 1022.71 1022.55 1022.47 1022.35 1022.27 1022.27 1022.23 1022.11 1021.87 1021.71 1021.63 1021.35 1021.19 1021.03 1020.87 1020.79 1020.63 1020.71 1020.55 1020.35 1020.15 1019.91 1019.59 1019.27 1018.91 1018.47 1017.87 1017.19 1016.63 1016.07 1015.43 1014.71 1013.55 1012.79 1012.51 1012.27 1012.07 1011.95 1011.83 1011.71 1011.51 1011.47 1011.63 1011.67 1011.75 1011.75 1011.87 1011.99 1012.15 1012.19 1012.31 1012.55 1012.79 1012.79 1013.27 1013.39 1013.55 1013.59 1013.55 1013.59 1013.51 1013.79
1023.03 1022.83 1022.71 1022.63 1022.59 1022.55 1022.51 1022.55 1022.47 1022.35 1022.19 1022.03 1021.83 1021.59 1021.47 1021.35 1021.27 1020.99 1020.95 1020.87 1020.67 1020.47 1020.19 1019.91 1019.63 1019.27 1018.87 1018.39 1017.79 1017.07 1016.51 1015.91 1015.15 1014.39 1013.35 1012.59 1012.27 1012.03 1011.91 1011.75 1011.59 1011.47 1011.47 1011.51 1011.55 1011.63 1011.67 1011.63 1011.59 1011.71 1011.83 1011.95 1012.15 1012.31 1012.55 1012.71 1013.03 1013.31 1013.35 1013.39 1013.19 1013.47 1013.67
1023.07 1022.95 1022.83 1022.75 1022.71 1022.71 1022.71 1022.79 1022.75 1022.75 1022.63 1022.43 1022.23 1022.07 1021.79 1021.67 1021.51 1021.35 1021.23 1021.11 1020.95 1020.83 1020.51 1020.19 1019.75 1019.47 1019.11 1018.63 1018.11 1017.51 1016.83 1016.19 1015.47 1014.67 1014.03 1013.11 1012.31 1011.99 1011.75 1011.59 1011.43 1011.39 1011.43 1011.47 1011.43 1011.47 1011.47 1011.47 1011.47 1011.51 1011.55 1011.51 1011.79 1011.99 1012.15 1012.35 1012.43 1012.63 1012.79 1012.99 1013.15 1013.11 1013.19
1023.11 1023.03 1022.99 1022.99 1022.95 1022.83 1022.83 1022.91 1022.95 1022.95 1022.91 1022.79 1022.67 1022.47 1022.19 1021.91 1021.71 1021.55 1021.51 1021.47 1021.31 1021.07 1020.71 1020.39 1019.99 1019.55 1019.15 1018.75 1018.31 1017.75 1017.15 1016.47 1015.71 1014.99 1014.31 1013.67 1012.71 1011.95 1011.67 1011.55 1011.39 1011.31 1011.27 1011.27 1011.23 1011.23 1011.23 1011.23 1011.15 1011.15 1011.15 1011.31 1011.55 1011.63 1011.71 1011.79 1011.95 1012.27 1012.83 1012.91 1012.87 1012.83 1012.83
1023.39 1023.31 1023.27 1023.27 1023.19 1023.11 1022.99 1022.95 1022.99 1023.07 1023.03 1023.03 1022.91 1022.75 1022.59 1022.35 1022.11 1021.95 1021.79 1021.71 1021.55 1021.27 1020.91 1020.51 1020.15 1019.79 1019.27 1018.71 1018.23 1017.79 1017.31 1016.67 1015.91 1015.19 1014.47 1013.79 1013.11 1012.07 1011.63 1011.47 1011.35 1011.23 1011.19 1011.15 1010.99 1010.95 1011.03 1010.99 1010.91 1010.87 1010.71 1010.79 1011.15 1011.31 1011.31 1011.35 1011.59 1012.03 1012.39 1012.39 1012.71 1013.11 1012.87
1023.63 1023.59 1023.59 1023.59 1023.55 1023.39 1023.27 1023.23 1023.15 1023.15 1023.11 1023.07 1022.99 1022.91 1022.79 1022.63 1022.43 1022.27 1022.11 1021.91 1021.71 1021.39 1020.99 1020.59 1020.23 1019.83 1019.27 1018.71 1018.23 1017.67 1017.11 1016.51 1015.87 1015.23 1014.43 1013.71 1013.07 1012.31 1011.67 1011.35 1011.19 1011.11 1011.03 1010.95 1010.87 1010.79 1010.71 1010.63 1010.59 1010.55 1010.55 1010.71 1010.87 1011.03 1011.11 1011.19 1011.43 1011.91 1012.03 1012.19 1012.47 1012.55 1012.51
1023.87 1023.87 1023.87 1023.87 1023.79 1023.71 1023.59 1023.51 1023.47 1023.35 1023.19 1023.11 1023.03 1022.99 1022.95 1022.83 1022.67 1022.43 1022.27 1022.03 1021.83 1021.51 1021.19 1020.67 1020.19 1019.75 1019.35 1018.79 1018.15 1017.63 1017.03 1016.35 1015.75 1015.07 1014.35 1013.59 1012.99 1012.39 1011.79 1011.31 1011.07 1010.95 1010.83 1010.75 1010.67 1010.55 1010.51 1010.47 1010.35 1010.35 1010.39 1010.51 1010.59 1010.87 1010.95 1010.95 1011.15 1011.59 1012.03 1012.27 1012.27 1012.35 1012.39
1024.19 1024.19 1024.15 1024.07 1023.99 1023.91 1023.91 1023.87 1023.79 1023.67 1023.51 1023.31 1023.15 1023.11 1023.03 1022.91 1022.75 1022.51 1022.27 1022.07 1021.83 1021.59 1021.31 1020.99 1020.59 1020.27 1019.63 1018.83 1018.27 1017.63 1016.99 1016.39 1015.67 1014.95 1014.19 1013.47 1012.87 1012.31 1011.71 1011.31 1011.03 1010.79 1010.63 1010.47 1010.35 1010.27 1010.11 1009.99 1009.99 1009.99 1009.95 1009.95 1010.11 1010.39 1010.59 1010.79 1010.87 1011.23 1011.51 1011.75 1011.87 1011.87 1012.03
1024.55 1024.51 1024.39 1024.31 1024.23 1024.19 1024.19 1024.15 1024.07 1023.95 1023.79 1023.59 1023.47 1023.35 1023.23 1023.11 1022.91 1022.71 1022.51 1022.23 1021.99 1021.79 1021.63 1021.35 1021.03 1020.59 1020.15 1019.55 1018.67 1017.91 1017.11 1016.35 1015.67 1014.87 1014.23 1013.83 1013.67 1013.27 1012.83 1012.07 1011.39 1010.95 1010.75 1010.55 1010.39 1010.27 1010.15 1009.91 1009.71 1009.63 1009.63 1009.67 1009.79 1010.11 1010.23 1010.39 1010.43 1010.47 1010.83 1011.27 1011.47 1011.55 1011.99
1024.79 1024.71 1024.63 1024.47 1024.43 1024.47 1024.43 1024.43 1024.35 1024.19 1024.03 1023.83 1023.67 1023.55 1023.43 1023.27 1023.11 1022.91 1022.71 1022.51 1022.27 1022.03 1021.87 1021.63 1021.27 1020.71 1020.11 1019.51 1018.87 1018.23 1017.59 1016.95 1016.19 1015.59 1015.11 1014.95 1014.55 1014.07 1013.63 1013.31 1012.95 1012.19 1011.39 1010.95 1010.59 1010.23 1009.99 1009.91 1009.71 1009.51 1009.47 1009.31 1009.31 1009.51 1009.83 1010.07 1009.99 1009.87 1010.15 1010.43 1010.79 1011.11 1011.23
1025.03 1024.91 1024.79 1024.75 1024.71 1024.71 1024.67 1024.63 1024.51 1024.35 1024.19 1023.99 1023.83 1023.75 1023.63 1023.51 1023.35 1023.15 1022.91 1022.71 1022.47 1022.19 1022.03 1021.79 1021.39 1020.83 1020.27 1019.71 1019.15 1018.59 1018.03 1017.43 1016.87 1016.43 1015.95 1015.59 1015.23 1014.87 1014.39 1013.91 1013.47 1013.07 1012.67 1012.15 1011.47 1011.23 1010.59 1009.91 1009.51 1009.39 1009.39 1009.43 1009.19 1009.11 1009.07 1009.23 1009.47 1009.63 1009.55 1009.71 1010.15 1010.55 1010.79
1025.27 1025.11 1025.03 1024.99 1024.99 1024.95 1024.87 1024.79 1024.71 1024.55 1024.35 1024.19 1024.07 1023.91 1023.83 1023.67 1023.51 1023.31 1023.11 1022.87 1022.63 1022.35 1022.07 1021.87 1021.51 1021.03 1020.51 1019.99 1019.39 1018.83 1018.35 1017.83 1017.39 1016.95 1016.59 1016.19 1015.87 1015.55 1015.03 1014.43 1013.91 1013.59 1013.19 1012.51 1011.99 1011.95 1011.67 1010.91 1009.95 1009.43 1009.23 1009.35 1009.47 1009.27 1009.03 1008.99 1009.03 1008.87 1008.95 1009.31 1009.43 1009.67 1010.19
1025.51 1025.43 1025.35 1025.27 1025.19 1025.11 1025.03 1024.99 1024.87 1024.75 1024.67 1024.51 1024.35 1024.15 1023.95 1023.83 1023.67 1023.47 1023.23 1023.03 1022.79 1022.51 1022.19 1021.95 1021.67 1021.27 1020.79 1020.27 1019.67 1019.11 1018.71 1018.23 1017.91 1017.47 1017.07 1016.67 1016.27 1015.91 1015.51 1015.07 1014.67 1014.27 1013.75 1013.23 1012.67 1012.43 1012.11 1011.63 1010.91 1009.87 1009.31 1009.19 1009.15 1009.11 1009.11 1008.91 1008.87 1008.87 1008.83 1008.91 1008.99 1009.19 1008.99
1025.75 1025.75 1025.63 1025.55 1025.43 1025.39 1025.35 1025.23 1025.07 1024.95 1024.87 1024.79 1024.63 1024.35 1024.15 1023.99 1023.79 1023.63 1023.35 1023.11 1022.87 1022.63 1022.35 1022.07 1021.79 1021.47 1021.03 1020.55 1019.95 1019.39 1018.91 1018.55 1018.19 1017.79 1017.39 1016.99 1016.67 1016.39 1015.95 1015.55 1015.23 1014.95 1014.39 1013.79 1013.31 1013.27 1012.79 1012.07 1011.43 1010.31 1009.35 1008.91 1008.83 1008.63 1008.63 1008.71 1008.87 1008.83 1008.83 1008.71 1008.55 1008.31 1008.47
1025.91 1025.91 1025.83 1025.75 1025.67 1025.63 1025.59 1025.51 1025.35 1025.27 1025.15 1024.99 1024.79 1024.59 1024.31 1024.07 1023.91 1023.71 1023.47 1023.19 1022.95 1022.75 1022.47 1022.19 1021.95 1021.63 1021.23 1020.79 1020.19 1019.71 1019.27 1018.83 1018.39 1018.07 1017.67 1017.27 1016.95 1016.63 1016.23 1015.71 1015.43 1015.19 1014.75 1014.27 1013.75 1013.43 1012.99 1012.43 1011.39 1010.15 1009.11 1008.51 1008.51 1008.39 1008.23 1008.47 1008.75 1008.79 1008.71 1008.63 1008.47 1008.43 1008.59
1025.99 1025.99 1025.99 1025.91 1025.87 1025.91 1025.83 1025.71 1025.59 1025.51 1025.35 1025.23 1024.99 1024.75 1024.59 1024.35 1024.11 1023.91 1023.63 1023.35 1023.11 1022.95 1022.67 1022.31 1022.11 1021.83 1021.47 1021.07 1020.39 1020.07 1019.63 1019.23 1018.79 1018.39 1018.07 1017.63 1017.31 1016.99 1016.59 1016.07 1015.71 1015.51 1015.07 1014.51 1014.07 1013.59 1012.95 1012.43 1011.39 1010.19 1009.07 1008.31 1008.15 1008.15 1007.99 1008.43 1008.79 1008.79 1008.71 1008.67 1008.55 1008.39 1008.47
1026.03 1026.07 1026.07 1026.07 1026.07 1026.07 1025.99 1025.91 1025.79 1025.71 1025.59 1025.43 1025.19 1025.03 1024.87 1024.63 1024.31 1024.07 1023.83 1023.59 1023.23 1023.15 1022.91 1022.51 1022.27 1022.03 1021.71 1021.39 1020.91 1020.51 1020.07 1019.71 1019.31 1018.75 1018.31 1017.87 1017.59 1017.27 1016.87 1016.43 1015.99 1015.75 1015.39 1014.87 1014.35 1013.71 1013.11 1012.55 1011.67 1010.83 1009.87 1008.63 1007.95 1007.91 1008.03 1008.31 1008.43 1008.63 1008.75 1008.75 1008.79 1008.63 1008.59
1026.03 1026.11 1026.15 1026.19 1026.23 1026.15 1026.15 1026.11 1026.11 1025.95 1025.79 1025.67 1025.51 1025.35 1025.07 1024.91 1024.63 1024.31 1024.03 1023.83 1023.47 1023.31 1023.07 1022.71 1022.43 1022.23 1021.95 1021.63 1021.23 1020.83 1020.43 1020.11 1019.71 1019.11 1018.55 1018.11 1017.79 1017.51 1017.07 1016.67 1016.31 1016.03 1015.75 1015.27 1014.59 1013.87 1013.31 1012.79 1012.11 1011.27 1010.51 1009.59 1008.35 1007.67 1007.47 1008.07 1008.31 1008.51 1008.63 1008.59 1008.75 1008.71 1008.79
1026.15 1026.19 1026.23 1026.27 1026.31 1026.35 1026.39 1026.35 1026.27 1026.15 1026.03 1025.91 1025.71 1025.55 1025.35 1025.15 1024.91 1024.63 1024.31 1023.99 1023.75 1023.55 1023.23 1022.95 1022.63 1022.39 1022.15 1021.87 1021.59 1021.23 1020.79 1020.39 1020.07 1019.51 1018.95 1018.51 1018.11 1017.67 1017.39 1016.95 1016.43 1016.03 1015.79 1015.23 1014.63 1014.03 1013.51 1013.03 1012.43 1011.47 1010.79 1010.03 1008.91 1007.67 1007.51 1008.03 1008.35 1008.39 1008.67 1008.67 1008.71 1008.75 1008.79
1026.19 1026.39 1026.43 1026.39 1026.47 1026.55 1026.59 1026.55 1026.47 1026.35 1026.27 1026.11 1025.95 1025.75 1025.55 1025.35 1025.19 1024.91 1024.59 1024.23 1023.99 1023.75 1023.43 1023.11 1022.83 1022.55 1022.31 1022.03 1021.75 1021.47 1021.19 1020.87 1020.55 1020.03 1019.47 1019.03 1018.71 1018.27 1017.79 1017.35 1016.87 1016.31 1015.87 1015.31 1014.75 1014.27 1013.71 1013.15 1012.51 1011.71 1011.23 1010.83 1009.87 1008.99 1008.31 1008.07 1008.47 1008.55 1008.75 1008.91 1009.07 1009.23 1009.27
1026.39 1026.51 1026.59 1026.51 1026.55 1026.63 1026.71 1026.71 1026.63 1026.59 1026.47 1026.35 1026.19 1025.99 1025.83 1025.59 1025.43 1025.19 1024.83 1024.51 1024.15 1023.99 1023.67 1023.27 1023.07 1022.67 1022.43 1022.19 1021.91 1021.63 1021.51 1021.23 1020.91 1020.43 1019.91 1019.51 1019.11 1018.71 1018.31 1017.83 1017.27 1016.63 1016.15 1015.59 1015.07 1014.51 1013.91 1013.31 1012.59 1011.79 1011.31 1010.43 1009.23 1008.63 1008.31 1008.07 1008.39 1008.71 1009.07 1009.23 1009.19 1009.11 1009.19
1026.55 1026.67 1026.71 1026.71 1026.67 1026.79 1026.87 1026.83 1026.79 1026.75 1026.67 1026.55 1026.43 1026.23 1026.07 1025.83 1025.67 1025.39 1025.03 1024.75 1024.47 1024.19 1023.91 1023.51 1023.19 1022.91 1022.55 1022.31 1022.07 1021.79 1021.55 1021.31 1020.95 1020.63 1020.31 1019.91 1019.51 1019.15 1018.67 1018.19 1017.63 1017.07 1016.51 1015.83 1015.27 1014.71 1014.15 1013.59 1012.79 1012.19 1011.27 1010.23 1009.31 1008.75 1008.39 1008.31 1008.47 1008.79 1009.15 1009.39 1009.43 1009.55 1009.71
1026.75 1026.79 1026.79 1026.75 1026.79 1026.87 1026.95 1026.99 1026.99 1026.95 1026.87 1026.79 1026.67 1026.47 1026.31 1026.15 1025.87 1025.55 1025.31 1025.07 1024.75 1024.47 1024.15 1023.83 1023.39 1023.07 1022.79 1022.47 1022.15 1021.91 1021.63 1021.35 1021.07 1020.83 1020.51 1020.23 1019.83 1019.47 1018.99 1018.51 1017.99 1017.31 1016.75 1016.19 1015.59 1015.03 1014.47 1013.99 1013.51 1012.63 1011.67 1010.87 1010.19 1009.59 1009.15 1009.03 1008.99 1009.15 1009.43 1009.71 1009.91 1010.07 1010.27
Wind_Speed
5 4 4 4 5 5 5 5 4 6 10 7 6 6 6 6 6 6 6 4 5 5 4 5 6 7 7 7 7 8 7 6 7 7 9 7 8 7 5 6 8 10 9 6 4 6 4 2 4 5 5 7 8 9 8 9 9 10 9 8 8 8 7
3 3 2 4 5 6 6 7 7 5 2 7 9 8 8 8 7 7 7 4 6 6 5 5 7 8 9 8 7 7 7 6 6 7 8 9 7 9 6 7 7 10 10 10 9 6 6 5 6 7 7 6 8 9 9 9 9 9 9 9 8 8 7
5 4 3 6 6 6 7 6 6 5 6 5 3 4 5 5 4 4 6 7 7 7 6 7 7 7 7 7 7 7 8 8 7 7 9 9 9 9 8 7 7 8 8 8 9 9 6 5 5 6 8 10 9 8 9 10 11 8 8 7 8 7 7
7 7 7 8 7 7 7 6 6 5 5 6 6 7 6 7 7 6 4 5 5 6 6 6 7 7 7 7 6 6 8 9 8 9 10 11 10 9 9 8 8 9 10 10 10 9 10 8 8 7 6 8 11 9 8 10 9 8 8 7 7 7 7
6 7 7 7 6 6 5 6 6 5 6 5 6 6 7 9 8 7 6 6 5 5 5 5 5 6 6 6 7 7 7 9 9 9 9 10 10 9 10 9 10 10 10 10 8 9 11 10 9 6 7 6 5 5 1 6 7 7 7 8 8 8 7
7 6 5 5 5 5 5 6 7 6 6 7 7 8 8 10 8 8 7 7 6 5 6 5 5 6 6 6 7 7 7 8 8 9 9 10 11 10 9 9 9 10 11 10 9 9 9 8 8 8 7 5 6 6 5 5 6 7 6 7 7 8 8
5 5 5 5 6 5 5 5 5 5 5 5 7 7 7 8 8 7 7 7 7 7 6 6 6 6 6 7 7 8 9 9 9 10 11 12 11 11 9 9 9 10 10 10 10 10 9 8 8 9 6 4 4 6 3 6 5 5 4 8 8 7 8
6 6 5 5 5 6 5 6 5 4 4 5 5 5 7 8 9 9 10 10 10 10 9 8 7 7 7 7 7 9 8 8 9 9 9 9 10 11 12 11 10 9 9 9 9 9 9 9 9 8 8 9 7 5 5 4 5 9 7 7 8 8 8
5 4 4 5 5 6 7 7 5 4 5 4 4 5 6 8 9 10 11 12 12 11 10 9 9 8 8 8 8 8 9 6 9 11 10 11 12 14 13 11 11 11 9 9 9 10 10 9 8 8 9 8 9 8 4 6 5 6 7 6 5 8 8
6 7 7 8 8 8 8 8 7 7 7 7 7 6 8 9 10 12 12 12 12 12 13 14 13 11 10 9 8 9 9 8 8 10 10 10 11 11 9 12 9 8 9 8 8 7 6 7 7 7 7 9 8 8 6 8 7 7 6 8 7 8 9
7 7 7 9 9 10 10 9 9 9 10 9 8 8 10 11 9 13 12 12 12 12 12 12 13 13 14 10 9 9 9 9 10 9 8 9 10 9 9 8 9 9 7 6 7 7 6 7 7 8 9 7 7 10 8 8 8 7 6 6 6 5 8
6 7 8 9 9 10 11 10 10 9 10 10 10 11 10 10 9 11 12 12 11 10 10 12 12 12 12 11 12 10 9 9 9 9 9 9 9 9 10 10 9 9 7 7 7 7 7 6 7 8 8 8 8 8 8 6 7 4 6 8 8 5 8
7 8 8 9 9 10 10 11 11 11 11 9 9 9 9 10 10 11 11 11 11 11 12 11 11 11 11 10 9 10 12 13 10 9 9 8 8 8 8 9 8 7 5 7 8 7 7 8 8 8 8 9 9 9 7 5 6 6 6 8 8 8 9
8 8 8 8 8 9 9 9 9 9 9 11 10 10 10 11 10 9 11 12 11 11 12 12 11 11 10 11 11 10 11 13 13 9 8 9 8 9 9 8 7 6 5 6 6 6 7 8 8 8 8 7 8 8 8 7 9 9 4 4 5 8 8
6 6 7 6 7 8 9 9 9 10 11 10 11 11 11 9 10 8 10 12 12 12 13 12 13 11 11 12 12 9 10 12 12 13 8 8 6 6 6 7 8 8 6 6 5 8 8 8 8 7 8 8 8 8 9 8 9 8 8 3 5 3 5
5 6 7 6 6 6 8 8 9 9 10 10 10 10 10 10 11 10 10 12 12 12 13 12 12 12 12 12 13 12 12 12 11 12 13 9 8 6 6 6 6 5 6 7 6 5 4 5 7 9 8 6 8 9 9 9 8 8 8 7 7 7 8
6 6 8 7 8 6 5 6 6 8 8 9 11 11 11 10 10 10 10 12 12 12 12 11 11 11 13 13 12 13 13 13 12 11 11 13 10 7 7 8 8 6 5 6 6 5 6 6 6 7 8 9 9 9 8 9 11 9 8 8 7 8 8
6 8 8 8 8 8 6 4 5 7 8 9 9 10 10 10 11 11 10 12 14 14 13 13 14 14 13 12 12 12 13 12 12 12 11 12 13 9 7 7 7 5 5 5 5 5 5 7 8 8 9 8 7 8 7 9 10 9 7 9 6 6 7
8 8 7 7 8 8 8 7 5 4 6 8 8 9 9 9 11 11 11 12 12 14 14 12 11 13 14 14 13 12 12 12 12 12 10 11 11 10 7 7 7 7 6 7 7 6 7 9 9 9 11 10 7 7 9 9 9 8 10 10 7 5 6
7 7 7 7 7 7 8 8 8 6 5 7 8 9 9 10 10 11 11 12 13 12 12 11 12 13 14 15 14 13 12 11 11 10 9 9 10 11 9 7 7 7 6 6 6 6 7 9 9 11 11 9 8 7 8 9 9 8 10 9 7 8 8
5 5 5 5 6 7 8 9 9 8 6 6 8 9 9 9 9 10 10 10 10 10 12 13 14 16 13 14 13 12 11 12 11 10 11 8 10 10 10 8 6 6 7 7 6 7 7 8 8 9 8 8 8 8 8 8 7 8 7 8 8 8 5
5 5 5 5 5 6 7 8 8 8 8 7 7 8 8 8 8 9 9 9 11 10 11 12 12 15 15 15 12 13 13 12 12 11 10 10 11 11 10 8 7 6 7 11 10 9 9 10 9 9 8 9 9 9 8 7 7 7 8 9 8 6 8
6 6 7 7 5 5 5 6 7 7 8 7 7 8 8 8 9 9 9 10 10 10 11 10 19 24 21 16 14 10 12 12 11 10 11 12 14 15 15 15 12 16 13 12 13 13 13 14 15 11 8 8 9 8 9 7 8 8 7 7 8 8 8
7 8 7 8 7 6 5 5 5 6 6 6 6 7 8 9 9 9 10 10 10 10 10 13 24 21 23 25 17 13 12 11 13 14 14 13 11 13 11 12 12 18 18 15 12 15 13 14 16 16 14 13 11 10 9 9 9 8 8 8 8 9 10
8 7 8 8 8 6 5 4 5 5 6 6 6 5 7 8 8 8 8 9 9 10 10 19 21 23 23 23 21 13 11 10 11 12 11 12 11 11 12 11 10 9 10 14 12 13 15 14 14 15 14 13 14 13 13 11 10 9 9 9 9 10 10
8 8 8 8 7 7 6 5 5 6 6 5 4 6 6 7 7 7 8 8 9 10 9 18 20 23 22 23 22 16 11 11 11 11 12 13 13 12 11 10 11 10 10 21 14 13 12 13 13 13 14 13 13 13 13 13 12 12 10 10 11 10 9
7 7 7 7 7 8 8 7 5 4 5 5 5 5 5 6 6 7 8 8 8 8 9 17 20 22 22 22 21 16 11 11 12 12 13 13 12 12 11 10 11 11 11 12 11 13 14 12 12 10 8 7 7 9 13 15 15 15 12 11 12 12 14
6 6 6 6 7 8 8 7 7 6 6 6 6 6 6 6 6 6 7 7 7 8 9 18 19 21 21 22 20 14 11 10 10 11 11 11 12 11 12 10 10 10 11 9 9 16 15 14 13 11 9 7 7 8 9 10 10 10 9 8 11 14 11
5 5 5 6 7 7 7 7 7 6 7 7 6 5 5 6 7 7 7 8 8 9 9 16 20 21 21 22 19 11 11 11 11 11 11 12 12 11 11 11 12 11 12 11 16 21 18 14 12 11 10 8 6 6 8 1 0 4 5 7 8 8 7
5 5 5 6 6 6 6 7 7 6 7 6 6 7 7 8 7 7 8 9 9 9 9 14 19 21 20 22 15 10 11 10 10 11 11 11 11 11 11 13 12 11 12 11 18 21 20 17 11 11 10 9 6 5 7 1 2 2 4 8 9 8 8
5 5 5 6 5 5 5 4 6 6 6 6 6 6 6 7 8 8 9 9 10 9 9 13 19 20 20 21 17 11 10 10 11 10 10 10 10 10 12 21 19 13 13 13 21 21 21 16 11 10 11 11 8 7 5 3 1 3 5 6 6 8 7
5 5 5 5 5 5 5 5 4 4 6 5 6 5 5 6 7 8 9 9 13 11 9 11 17 19 20 20 16 10 10 10 12 11 11 10 10 10 11 12 19 18 17 17 21 20 21 17 10 10 10 11 10 10 7 6 4 3 3 4 3 6 7
5 5 5 5 5 5 4 4 6 5 5 6 6 6 5 5 7 8 8 9 9 9 10 10 13 19 19 19 19 13 9 11 14 13 11 11 12 11 11 11 13 18 21 21 20 21 20 19 12 9 9 8 9 10 2 5 5 5 4 4 4 3 5
5 4 4 5 4 4 4 4 5 5 5 6 6 6 6 5 6 7 8 8 8 9 9 11 12 18 18 18 19 16 9 11 11 10 10 11 10 11 11 11 10 17 22 21 20 21 21 20 16 9 8 8 8 9 2 5 4 5 5 4 4 5 4
4 5 4 5 5 5 4 4 4 4 6 5 5 6 6 5 6 7 7 8 9 9 11 15 11 14 17 18 17 19 11 10 11 10 10 9 10 10 11 11 11 17 21 20 20 20 21 20 19 10 12 15 14 10 8 5 7 6 6 5 5 4 4
4 3 4 4 5 4 4 4 4 4 4 5 5 6 6 6 7 8 8 8 8 9 10 11 15 13 16 17 17 16 17 13 16 9 9 10 11 10 9 10 11 19 19 20 19 19 19 22 15 15 20 21 20 10 1 4 6 7 6 5 5 5 4
3 3 4 4 5 5 4 4 4 5 4 5 6 7 7 7 7 9 10 9 9 9 9 9 12 15 14 16 16 16 16 17 16 11 8 7 8 9 9 10 12 18 18 18 18 18 18 20 17 21 20 22 21 17 8 5 5 6 7 7 7 6 5
Wind_Direction
40 25 358 6 1 351 3 348 316 304 307 310 307 308 307 308 311 307 297 291 288 269 247 239 243 251 255 251 235 234 237 233 235 241 254 241 238 253 216 225 224 233 220 229 231 206 198 201 210 209 211 201 209 222 215 215 216 212 200 198 196 200 201
28 23 358 20 22 11 13 3 7 5 343 293 307 315 308 303 303 280 271 266 251 255 236 237 243 247 248 250 246 238 233 238 237 244 256 257 242 248 232 229 209 226 225 222 219 208 220 210 232 195 199 193 204 207 209 215 222 214 200 197 196 195 195
14 17 28 37 30 18 10 1 358 2 359 351 318 288 284 288 272 243 226 236 233 238 231 234 244 243 243 243 238 236 240 247 240 228 239 250 250 251 238 236 195 230 228 226 219 217 224 216 226 202 198 186 197 201 201 207 213 209 203 196 197 195 193
18 19 26 32 25 19 7 355 355 356 360 352 341 336 336 334 330 316 286 245 236 234 238 248 248 247 242 237 241 241 246 246 245 243 244 245 245 243 237 227 219 212 212 212 214 208 211 207 217 224 210 204 203 203 202 203 206 205 200 192 201 195 192
33 34 31 28 21 12 358 351 345 355 1 347 343 342 343 342 338 326 318 311 289 272 263 245 246 259 259 248 247 243 242 242 245 244 243 244 245 245 242 234 232 226 228 227 218 207 206 213 202 207 206 199 223 230 143 191 210 207 192 190 202 200 194
34 38 31 24 14 12 359 1 2 359 350 351 352 346 345 342 337 331 329 324 319 304 293 276 256 260 258 247 242 246 250 254 251 249 252 244 243 242 241 239 232 226 226 226 221 209 209 203 195 204 219 177 194 203 207 167 202 206 193 210 212 196 194
35 31 30 21 10 12 11 6 3 358 351 349 340 343 338 331 332 333 328 330 329 322 311 294 282 270 262 252 249 251 253 254 253 249 248 250 247 244 240 246 237 231 228 221 219 215 206 194 197 202 185 207 208 211 167 187 187 177 205 211 208 209 201
30 24 23 10 8 10 9 5 357 348 346 336 332 330 339 349 354 355 360 357 351 339 329 316 302 289 275 268 261 258 255 249 250 252 252 255 256 251 247 242 244 236 231 225 219 216 205 203 195 186 182 200 215 214 205 193 190 205 199 199 194 198 201
29 22 17 13 12 17 13 8 354 346 346 334 340 339 1 5 5 6 7 2 353 343 335 329 321 310 299 288 281 275 270 261 261 259 257 254 253 250 248 245 237 238 230 224 214 214 207 200 196 188 192 198 197 215 194 214 198 223 207 188 192 202 199
35 28 23 20 16 18 14 9 1 355 358 6 360 0 7 12 12 19 11 8 4 360 357 354 341 328 312 295 288 286 283 275 265 260 256 256 259 255 238 237 241 242 231 222 221 221 212 204 200 194 195 203 208 213 199 213 210 209 217 196 190 204 194
34 27 30 30 24 21 17 8 3 6 5 1 4 7 9 12 15 23 12 10 5 3 1 355 353 349 338 313 292 283 279 276 270 262 255 250 251 249 244 236 234 239 225 210 218 216 218 203 202 200 204 199 197 211 206 202 219 199 202 200 205 188 186
35 36 40 40 32 28 22 16 10 6 2 5 7 7 6 6 13 25 11 360 350 349 349 354 352 350 344 341 335 316 297 283 274 265 259 253 249 244 244 244 237 237 216 211 212 212 210 213 206 194 208 197 214 222 218 199 219 234 175 195 208 195 181
37 35 43 44 38 35 30 23 16 15 9 3 6 6 8 7 13 34 11 358 353 355 354 347 346 339 339 342 339 335 329 316 294 278 269 257 251 246 242 243 241 235 216 213 222 213 203 204 206 199 200 199 206 213 209 205 221 234 202 199 197 198 182
40 39 38 39 44 39 35 29 24 20 20 21 10 12 11 10 6 36 13 2 358 356 352 347 345 342 338 335 335 329 329 330 319 298 284 273 257 247 244 241 240 230 218 220 215 208 208 201 203 207 204 197 204 203 204 203 213 233 248 221 189 196 186
47 45 42 34 39 43 38 31 24 25 30 25 23 19 13 15 6 19 18 5 4 359 355 351 348 345 340 337 332 331 325 330 329 318 291 288 277 266 251 239 238 240 230 232 218 214 207 205 207 217 214 204 203 201 201 200 221 223 228 194 209 200 163
48 48 45 38 39 40 42 38 30 28 27 25 23 20 18 20 12 16 17 11 5 4 357 353 351 346 340 335 330 326 325 322 321 325 320 302 286 271 264 262 256 239 226 233 238 235 238 232 210 209 210 202 210 205 199 205 210 222 219 216 197 182 177
49 50 49 39 37 37 39 43 37 36 31 28 28 23 21 19 20 18 19 12 8 3 356 355 349 349 342 334 329 325 323 321 317 318 320 316 299 280 263 258 255 245 217 219 217 214 211 216 219 226 224 217 210 211 202 202 212 214 213 215 204 193 186
46 48 49 40 33 32 35 40 41 42 38 36 31 26 23 20 20 21 21 11 7 4 355 355 351 347 342 338 330 323 320 318 315 314 314 310 308 286 265 261 270 254 227 234 226 217 204 206 216 217 229 222 210 205 203 207 212 210 214 225 212 207 180
46 45 45 41 34 33 35 35 40 47 43 42 37 33 28 21 23 21 19 14 6 1 1 351 348 348 343 341 335 326 320 316 314 314 308 309 305 301 266 264 266 259 243 237 238 222 203 212 218 228 234 227 206 192 205 211 214 199 203 218 197 197 181
49 50 47 42 38 36 33 31 31 36 43 45 42 34 29 27 23 24 22 16 11 2 353 350 352 352 348 344 336 328 321 315 312 311 304 300 305 313 301 270 266 269 259 241 240 227 213 215 215 222 231 231 213 203 207 214 209 204 212 211 198 193 190
43 42 43 41 43 44 42 38 32 25 30 39 40 37 32 29 26 28 26 17 7 4 1 1 359 355 349 343 336 327 321 321 314 308 307 296 312 311 311 305 279 266 262 253 242 236 224 226 226 231 226 221 215 205 213 216 203 198 199 207 199 197 194
33 32 30 35 36 37 40 42 40 37 31 33 36 34 31 27 23 24 22 17 12 8 9 2 1 355 348 343 340 338 336 323 320 311 309 314 326 324 319 317 310 296 295 289 269 245 232 225 227 235 223 213 209 197 202 203 207 190 198 199 204 198 182
29 26 32 33 30 32 34 35 38 40 38 34 36 35 30 27 23 20 15 12 12 11 9 6 356 352 356 354 346 337 342 340 328 325 337 358 354 355 354 348 337 334 331 323 310 289 260 239 237 234 223 216 210 202 200 191 198 203 198 199 199 196 183
43 41 38 37 35 35 30 30 36 40 36 32 34 36 30 28 26 20 18 13 11 12 10 4 355 356 355 356 357 351 346 342 348 357 0 1 354 353 353 357 355 350 345 342 326 303 276 262 254 247 236 226 216 203 198 193 203 197 181 202 203 202 199
44 40 40 38 37 35 32 29 34 36 36 30 28 31 32 28 24 20 16 16 15 12 11 4 359 358 357 355 357 354 351 347 355 357 358 355 359 352 353 349 349 347 345 340 352 351 329 291 261 256 252 236 233 219 208 192 190 195 195 195 200 208 204
50 43 37 35 36 37 32 27 27 26 25 20 21 32 30 23 22 15 14 12 12 8 8 6 3 1 359 356 354 356 359 357 358 356 356 357 359 357 352 350 351 349 343 347 353 346 338 328 301 268 258 251 243 242 238 224 207 201 193 188 202 204 203
53 45 37 35 34 35 34 28 15 11 13 7 15 23 22 24 18 14 10 9 4 1 4 4 3 2 0 357 353 356 360 358 0 354 355 357 356 354 354 352 351 345 341 344 346 343 336 326 321 300 272 247 241 229 230 230 218 218 205 192 190 200 210
57 46 38 37 38 38 32 24 19 9 13 11 10 4 6 14 15 12 5 3 3 1 1 2 2 1 1 359 352 354 359 1 357 355 355 354 354 353 350 354 350 343 336 333 342 342 331 326 316 301 280 257 230 226 217 218 213 216 211 206 203 210 209
59 51 45 41 43 38 33 24 20 11 17 15 14 3 359 7 7 6 1 1 3 2 356 2 3 1 0 359 355 358 356 357 358 358 354 355 352 352 345 351 353 345 344 335 341 339 335 324 311 303 287 266 246 226 231 188 83 256 247 233 223 221 217
66 57 49 49 43 39 36 25 23 15 24 21 18 16 14 8 1 360 1 1 3 360 356 1 5 2 0 359 358 1 355 353 352 355 355 354 352 351 348 355 355 350 339 337 342 339 339 333 313 310 292 275 257 209 230 156 50 21 260 255 261 221 192
77 63 55 52 44 35 30 26 27 15 28 16 15 10 10 13 9 7 6 3 1 0 355 358 4 2 1 1 360 0 356 354 346 345 348 350 351 350 351 354 358 355 346 343 341 341 342 338 329 322 311 289 270 249 209 170 165 59 51 62 93 119 133
85 74 62 49 45 38 29 31 8 11 15 12 9 352 2 14 10 6 6 4 1 3 356 357 2 2 2 2 3 356 357 356 352 347 345 345 347 349 346 350 353 354 352 343 342 347 345 344 326 323 311 303 277 254 231 163 155 110 127 118 109 113 96
85 81 68 51 41 35 23 25 17 17 8 12 2 359 353 1 9 2 357 3 3 1 358 358 360 0 1 1 3 2 354 0 357 346 346 348 345 344 346 345 345 350 349 346 348 349 348 343 338 326 329 317 294 262 223 130 142 156 136 126 124 102 110
95 83 79 70 55 40 32 33 22 21 15 4 6 3 2 353 360 357 356 358 3 2 4 1 355 0 0 0 0 5 351 356 348 347 345 348 346 342 343 342 338 345 346 348 350 349 351 345 342 335 337 316 275 290 280 145 131 121 113 108 76 56 40
90 98 83 70 60 41 23 34 30 24 13 9 9 5 357 360 358 358 359 1 4 1 2 4 357 357 0 359 359 360 5 353 349 344 347 350 348 348 343 338 337 342 344 349 350 351 353 351 348 358 340 335 321 267 223 135 127 121 107 95 104 88 72
96 101 91 85 75 52 28 31 21 22 21 10 11 7 4 359 3 5 11 10 2 1 358 357 355 355 355 358 357 356 356 355 351 353 349 348 349 343 341 339 338 342 346 351 353 353 357 357 357 357 0 7 3 348 295 113 123 115 103 99 86 76 55
79 95 111 93 79 64 36 28 29 21 13 18 13 14 7 2 7 12 12 7 7 1 356 354 349 353 351 353 354 354 353 350 352 353 349 348 344 340 342 342 342 343 352 353 356 357 0 4 1 359 12 17 16 11 16 26 64 88 99 87 79 67 53